Preview of NWS' New Version of Forecast
This preview is not operational and should not be used for support decisions.

Regional Weather Roundup (RWR)

Issued by National Weather Service (NWS)

                            
000
ASUS44 KJAN 230210
RWRMS 

MISSISSIPPI HOURLY WEATHER ROUNDUP
NATIONAL WEATHER SERVICE JACKSON MS
900 PM CDT SAT JUN 22 2019

NOTE: "FAIR: INDICATES FEW OR NO CLOUDS BELOW 12,000 FEET WITH NO
SIGNIFICANT WEATHER AND/OR OBSTRUCTIONS TO VISIBILITY.

MSZ001>002-007>008-010>013-018>021-025>028-034>036-230300-
NORTHWEST MISSISSIPPI
  
CITY           SKY/WX    TMP DP  RH WIND       PRES   REMARKS
BATESVILLE     MOCLDY    75  70  83 CALM      30.01S                  
CLARKSDALE     CLOUDY    88  77  70 S8        30.00R HX 100           
CLEVELAND      FAIR      84  75  73 SE8       29.99R HX  92           
GREENWOOD      FAIR      81  77  88 S5        30.01S                  
GREENVILLE     FAIR      84  74  71 SE9       29.98R HX  91           
OLIVE BRANCH   MOCLDY    70  70 100 S5        30.00R                  
OXFORD         FAIR      72  70  94 SE9       30.03F                  
TUNICA         LGT RAIN  77  68  73 E7        30.00R                  
WINONA         FAIR      80  78  91 CALM      30.04R                  
$$

MSZ003>006-009-014>017-022>024-029>033-037>039-230300-
NORTHEAST MISSISSIPPI
  
CITY           SKY/WX    TMP DP  RH WIND       PRES   REMARKS
ABERDEEN       MOCLDY    73  68  83 E5        30.08R                  
COLUMBUS AFB   FAIR      75  68  79 SE8       30.08                   
CORINTH        FAIR      75  68  78 SE12      30.01R                  
GOLDN TRIANGLE FAIR      76  70  82 E9        30.08R                  
STARKVILLE       N/A     77  68  73 SE6       30.08S                  
TUPELO         FAIR      74  69  85 S7        30.05F                  
$$

MSZ040-058-230300-
CENTRAL MISSISSIPPI
  
CITY           SKY/WX    TMP DP  RH WIND       PRES   REMARKS
JACKSON INTL   FAIR      81  73  76 SE3       30.03R                  
JACKSON HAWKNS FAIR      85  75  72 SE3       30.03R HX  93           
MADISON        FAIR      79  77  94 CALM      30.03R                  
MERIDIAN KEY   FAIR      82  76  81 SW3       30.06R                  
MERIDIAN NAS   MOCLDY    83  74  74 SE3       30.07R                  
RAYMOND          N/A     81  81 100 CALM      30.02R HX  91           
VICKSBURG VKS    N/A     84  79  84 SE5       30.00R HX  96           
$$

MSZ059>079-230300-
SOUTH MISSISSIPPI
  
CITY           SKY/WX    TMP DP  RH WIND       PRES   REMARKS
HATTIESBURG    FAIR      85  77  77 S6        30.06R HX  95           
LAUREL         PTCLDY    86  76  71 S5        30.06R HX  95           
MCCOMB         FAIR      83  77  82 SE6       30.03R HX  92           
NATCHEZ        FAIR      83  77  82 S3        30.01S HX  92           
PINE BELT      FAIR      82  76  81 S3        30.07R                  
$$

MSZ080>082-230300-
COASTAL MISSISSIPPI
  
CITY           SKY/WX    TMP DP  RH WIND       PRES   REMARKS
BAY ST LOUIS   PTCLDY    82  77  83 S5        30.04S HX  91           
BILOXI         MOCLDY    85  78  78 S9        30.06  HX  97           
PASCAGOULA     FAIR      84  76  76 CALM      30.07R HX  93           
GULFPORT       MOCLDY    85  78  80 S10       30.05R HX  96           
$$

LAZ007>009-015>016-023>026-230300-
NORTHEAST LOUISIANA
  
CITY           SKY/WX    TMP DP  RH WIND       PRES   REMARKS
BASTROP        FAIR      82  76  82 CALM      29.97R                  
TALLULAH/VBURG FAIR      82  77  84 SE5       29.99R HX  90           
VIDALIA        FAIR      84  77  79 S6        29.98S HX  94           
$$